Weather in Trinidad

Trinidad and Tobago     10°22′26″N   61°15′42″W
temp.,
°C
wind,
m/s
gust,
m/s
humid.,
%
clouds,
%
prec.,
mm/h
press.,
hPa
HPBL,
m
3 august, tue
tue323:00+22ne119947 3.5 101731
02:00+22ne1199100 10.9 101627
05:00+22ne1199100 8.0 101527
08:00+24ese1394100 11.8 101781
11:00+27sse138048 2.8 1017881
14:00+25ese1194100 5.1 101631
17:00+24s1495100 1.5 1015225
20:00+22sw1198100 2.1 101729
4 august, wed
wed423:00+22w009872 0.1 101814
02:00+21w119916 0.2 101616
05:00+21wnw11985 0.2 101612
08:00+24wsw11910 0.2 1018188
11:00+30ssw116029 0.4 10171340
14:00+28sse117923 1.6 1015944
17:00+27nne1287100 1.8 1015133
20:00+23ne11945 2.0 101713
5 august, thu
thu523:00+22ne11950 0.0 101815
02:00+22nne11971 0.0 101612
05:00+22ene11960 0.0 101711
08:00+26ene12840 0.0 1018218
11:00+31se225877 0.3 10181634
14:00+29se126942 1.4 10151124
17:00+28ene127319 0.4 1015567
20:00+23ne11930 0.6 101632
6 august, fri
fri623:00+22ne11870 0.0 101714
02:00+21nne11971 1.8 101514
05:00+21ne119991 2.8 101632
08:00+24ne1295100 4.4 1017161
11:00+27ene2387100 4.0 1017611
14:00+30ene2364100 4.9 10151278
17:00+27ene2576100 0.3 1014557
20:00+23ne1291100 0.3 101537
7 august, sat
sat723:00+24nne1589100 0.0 1016146
02:00+22nne1294100 0.0 101458
05:00+22n119488 0.2 101433
08:00+25nne139345 3.8 1016275
11:00+29e237711 1.7 10151049
14:00+31ese235794 2.6 10131775
17:00+28ne23805 0.9 1013448
20:00+23ne11945 0.9 101512